Weather History for Hermiston, OR

Change the Weather History Date:

Tuesday, November 6, 2012

  Actual Average Record
Temperature  
Mean Temperature 50 °F -  
Max Temperature 57 °F 52 °F 77 °F (2006)
Min Temperature 42 °F 33 °F 10 °F (2003)
Degree Days  
Heating Degree Days 16    
Moisture  
Dew Point 49 °F    
Average Humidity 95    
Maximum Humidity 100    
Minimum Humidity 72    
Precipitation  
Precipitation 0.01 in - - ()
Sea Level Pressure  
Sea Level Pressure 30.02 in    
Wind  
Wind Speed 2 mph (South)    
Max Wind Speed 12 mph    
Max Gust Speed -    
Visibility 2 miles    
Events Fog    
Averages and records for this station are not official NWS values.
T = Trace of Precipitation, MM = Missing Value Source: NWS Daily Summary

Daily Weather History Graph

Daily Weather History Graph

Search for Another Location

Airport:

Trip Planner

Search our weather history database for the weather conditions in past years. The results will help you decide how hot, cold, wet, or windy it might be!

Date:

Astronomy

Nov. 06, 2012 Rise Set
Actual Time 6:45 AM PST 4:35 PM PST
Civil Twilight 6:13 AM PST 5:07 PM PST
Nautical Twilight 5:37 AM PST 5:42 PM PST
Astronomical Twilight 5:03 AM PST 6:17 PM PST
Moon 11:24 PM PST (11/6) 12:36 PM PST (11/6)
Length of Visible Light 10h 53m
Length of Day
9h 50m
Waning Gibbous, 52% of the Moon is Illuminated
Nov 6
Waning Gibbous
Nov 6
Last Quarter
Nov 13
New
Nov 20
First Quarter
Nov 28
Full

Hourly Weather History & Observations

Time (PST) Temp. Windchill Dew Point Humidity Pressure Visibility Wind Dir Wind Speed Gust Speed Precip Events Conditions
12:14 AM 46.4 °F - 44.6 °F 93% 30.15 in 1.5 mi Calm Calm - N/A   Clear
12:22 AM 46.4 °F - 44.6 °F 93% 30.15 in 0.5 mi Calm Calm - N/A Fog Fog
12:53 AM 44.1 °F - 44.1 °F 100% 30.14 in 0.5 mi Calm Calm - N/A Fog Fog
1:20 AM 46.4 °F 44.3 °F 44.6 °F 93% 30.15 in 2.0 mi SSE 4.6 mph - N/A   Clear
1:28 AM 46.4 °F 45.2 °F 46.4 °F 100% 30.15 in 7.0 mi SSE 3.5 mph - N/A   Clear
1:53 AM 48.0 °F - 46.9 °F 96% 30.14 in 10.0 mi SSE 3.5 mph - N/A   Clear
2:53 AM 48.0 °F - 46.9 °F 96% 30.12 in 10.0 mi SSE 6.9 mph - N/A   Clear
3:53 AM 46.9 °F - 46.0 °F 97% 30.10 in 10.0 mi SSE 4.6 mph - N/A   Clear
4:36 AM 44.6 °F - 44.6 °F 100% 30.10 in 1.5 mi Calm Calm - N/A   Clear
4:48 AM 44.6 °F - 42.8 °F 93% 30.10 in 0.8 mi Calm Calm - N/A   Mist
4:53 AM 44.1 °F - 42.1 °F 93% 30.10 in 0.8 mi Calm Calm - N/A   Mist
5:22 AM 44.6 °F - 42.8 °F 93% 30.09 in 1.0 mi Calm Calm - N/A   Clear
5:53 AM 43.0 °F - 43.0 °F 100% 30.09 in 2.0 mi Calm Calm - N/A   Clear
6:00 AM 42.8 °F - 42.8 °F 100% 30.08 in 4.0 mi Calm Calm - N/A   Clear
6:13 AM 42.8 °F - 42.8 °F 100% 30.08 in 1.5 mi Calm Calm - N/A   Clear
6:22 AM 42.8 °F - 42.8 °F 100% 30.08 in 0.5 mi Calm Calm - N/A Fog Fog
6:53 AM 43.0 °F - 43.0 °F 100% 30.08 in 0.5 mi Calm Calm - N/A Fog Fog
7:17 AM 44.6 °F - 42.8 °F 93% 30.08 in 1.0 mi Calm Calm - N/A   Mist
7:20 AM 44.6 °F 43.1 °F 42.8 °F 93% 30.08 in 2.0 mi South 3.5 mph - N/A   Scattered Clouds
7:28 AM 44.6 °F 43.1 °F 42.8 °F 93% 30.08 in 5.0 mi SSW 3.5 mph - 0.01 in   Scattered Clouds
7:37 AM 44.6 °F 43.1 °F 44.6 °F 100% 30.08 in 1.5 mi SSW 3.5 mph - 0.01 in   Mostly Cloudy
7:45 AM 46.4 °F - 46.4 °F 100% 30.08 in 0.2 mi Calm Calm - 0.01 in Fog Fog
7:53 AM 46.9 °F - 46.9 °F 100% 30.08 in 0.2 mi Calm Calm - 0.01 in Fog Fog
8:53 AM 48.9 °F - 48.9 °F 100% 30.07 in 0.2 mi SW 3.5 mph - N/A Fog Fog
9:50 AM 51.8 °F - 50.0 °F 94% 30.06 in 2.5 mi West 3.5 mph - N/A   Overcast
9:53 AM 51.1 °F - 50.0 °F 96% 30.06 in 4.0 mi Calm Calm - N/A   Overcast
10:03 AM 51.8 °F - 50.0 °F 94% 30.05 in 1.5 mi SW 3.5 mph - N/A   Overcast
10:12 AM 51.8 °F - 51.8 °F 100% 30.05 in 0.2 mi Calm Calm - N/A Fog Fog
10:37 AM 51.8 °F - 51.8 °F 100% 30.04 in 1.2 mi SW 3.5 mph - N/A   Overcast
10:46 AM 51.8 °F - 51.8 °F 100% 30.04 in 0.5 mi West 3.5 mph - N/A Fog Fog
10:53 AM 51.1 °F - 50.0 °F 96% 30.03 in 0.8 mi Calm Calm - N/A   Overcast
11:53 AM 52.0 °F - 51.1 °F 97% 30.01 in 1.0 mi WSW 3.5 mph - N/A   Overcast
12:03 PM 51.8 °F - 51.8 °F 100% 30.00 in 0.5 mi Calm Calm - N/A Fog Fog
12:17 PM 51.8 °F - 51.8 °F 100% 29.99 in 1.2 mi Calm Calm - N/A   Overcast
12:29 PM 51.8 °F - 51.8 °F 100% 29.98 in 0.8 mi Calm Calm - N/A   Overcast
12:53 PM 52.0 °F - 52.0 °F 100% 29.98 in 1.0 mi South 3.5 mph - N/A   Overcast
1:14 PM 53.6 °F - 51.8 °F 94% 29.96 in 2.5 mi SSE 4.6 mph - N/A   Overcast
1:35 PM 53.6 °F - 51.8 °F 94% 29.95 in 3.0 mi South 5.8 mph - N/A   Overcast
1:44 PM 53.6 °F - 51.8 °F 94% 29.94 in 2.5 mi SSE 4.6 mph - N/A   Overcast
1:53 PM 54.0 °F - 52.0 °F 93% 29.94 in 2.5 mi WSW 3.5 mph - N/A   Overcast
2:01 PM 55.4 °F - 51.8 °F 88% 29.95 in 3.0 mi West 3.5 mph - N/A   Overcast
2:40 PM 55.4 °F - 53.6 °F 94% 29.94 in 2.5 mi Calm Calm - N/A   Overcast
2:53 PM 55.9 °F - 53.1 °F 90% 29.94 in 2.5 mi Calm Calm - N/A   Overcast
3:03 PM 55.4 °F - 53.6 °F 94% 29.93 in 3.0 mi Calm Calm - N/A   Overcast
3:27 PM 55.4 °F - 53.6 °F 94% 29.93 in 3.0 mi East 3.5 mph - N/A   Scattered Clouds
3:53 PM 55.9 °F - 53.1 °F 90% 29.92 in 3.0 mi ENE 3.5 mph - N/A   Clear
4:05 PM 55.4 °F - 51.8 °F 88% 29.92 in 2.5 mi Calm Calm - N/A   Partly Cloudy
4:39 PM 51.8 °F - 50.0 °F 94% 29.91 in 1.0 mi ENE 5.8 mph - N/A   Mist
4:46 PM 53.6 °F - 51.8 °F 94% 29.91 in 0.2 mi East 3.5 mph - N/A Fog Fog
4:53 PM 53.1 °F - 53.1 °F 100% 29.91 in 0.2 mi East 3.5 mph - N/A Fog Fog
5:53 PM 52.0 °F - 51.1 °F 97% 29.91 in 0.2 mi Calm Calm - N/A Fog Fog
6:53 PM 51.1 °F - 50.0 °F 96% 29.90 in 0.8 mi Calm Calm - N/A   Mist
7:53 PM 50.0 °F - 50.0 °F 100% 29.90 in 0.2 mi Calm Calm - N/A Fog Fog
8:53 PM 51.1 °F - 51.1 °F 100% 29.91 in 0.2 mi Calm Calm - N/A Fog Fog
9:15 PM 51.8 °F - 51.8 °F 100% 29.92 in 2.0 mi Calm Calm - N/A   Overcast
9:18 PM 51.8 °F - 51.8 °F 100% 29.92 in 3.0 mi SSW 3.5 mph - N/A   Overcast
9:53 PM 55.9 °F - 48.9 °F 77% 29.92 in 10.0 mi WSW 8.1 mph - N/A   Mostly Cloudy
10:53 PM 57.0 °F - 48.0 °F 72% 29.93 in 10.0 mi SW 11.5 mph - N/A   Clear
11:53 PM 55.9 °F - 48.0 °F 75% 29.92 in 10.0 mi SSW 11.5 mph - N/A   Clear